This demonstration page uses our WeatherBlox Daily Observations layout. Learn more.

Left ArrowRight Arrow

41.55636, -103.73856

Hourly Observations for July 31, 2020

Temp ( °F °C ) Dew Point ( °F °C ) Humidity (%) Winds ( mph kmh ) Pressure ( in mb ) Visibility ( mi km ) Precip ( " mm )
6:58 pm 18:58 Mostly Cloudy 74 23.4 55 12.7 51 51 N 3 6 30.18 1022 10 16 0.00 0.00
7:58 pm 19:58 Clear 72 22 55 13 57 57 Calm 30.20 1023 10 16 0.00 0.00
8:58 pm 20:58 Clear 65 18.6 55 12.7 69 69 SSW 6 9 30.19 1023 10 16 0.00 0.00
9:58 pm 21:58 Clear 62 16.9 56 13.3 79 79 SSW 7 11 30.22 1023 10 16 0.00 0.00
10:58 pm 22:58 Clear 60 15.7 55 12.6 82 82 SSW 9 15 30.20 1023 10 16 0.00 0.00
11:58 pm 23:58 Clear 59 14.9 54 12 83 83 SW 8 13 30.19 1022 10 16 0.00 0.00
12:58 am 00:58 Clear 59 15 54 12 82 82 SSW 7 11 30.18 1022 10 16 0.00 0.00
1:58 am 01:58 Clear 58 14.4 53 11.4 82 82 Calm 30.16 1021 10 16 0.00 0.00
2:58 am 02:58 Clear 57 13.9 52 11.1 83 83 WSW 5 7 30.14 1021 10 16 0.00 0.00
3:58 am 03:58 Clear 55 13 52 11 88 88 WSW 6 9 30.13 1020 10 16 0.00 0.00
4:58 am 04:58 Clear 55 12.6 52 11.3 92 92 Calm 30.14 1021 10 16 0.00 0.00
5:58 am 05:58 Sunny 52 11 50 10 94 94 WSW 5 7 30.14 1021 10 16 0.00 0.00
6:58 am 06:58 Sunny 54 12.4 52 11 91 91 SW 3 6 30.15 1021 10 16 0.00 0.00
7:58 am 07:58 Sunny 62 16.4 53 11.9 75 75 Calm 30.16 1021 10 16 0.00 0.00
8:58 am 08:58 Sunny 68 20 52 11 56 56 Calm 30.16 1022 10 16 0.00 0.00
9:58 am 09:58 Sunny 73 23 50 10.1 44 44 ENE 7 11 30.16 1021 10 16 0.00 0.00
11:58 am 11:58 Sunny 80 26.7 46 7.7 30 30 Calm 30.12 1020 10 16 0.00 0.00
12:58 pm 12:58 Sunny 84 29 45 7 25 25 WNW 9 15 30.10 1019 10 16 0.00 0.00
1:58 pm 13:58 Mostly Cloudy 83 28.3 46 7.9 28 28 N 10 17 30.10 1019 10 16 0.00 0.00
2:58 pm 14:58 Sunny 88 31 45 7 22 22 N 12 19 30.08 1019 10 16 0.00 0.00
3:58 pm 15:58 Mostly Sunny 88 31 43 6 21 21 N 14 22 30.07 1018 10 16 0.00 0.00
4:58 pm 16:58 Mostly Cloudy 86 29.9 47 8.2 26 26 ENE 16 26 30.08 1019 10 16 0.00 0.00
5:58 pm 17:58 Sunny 85 29.5 42 5.3 22 22 NE 13 20 30.07 1018 10 16 0.00 0.00

Powered by AerisWeather